Location: Mercogliano
(40.9167°N, 14.7333°E)
Time: 03:50:53
(UTC+00:00)

X-37B - Pass Details

Date: 02 December 2020
Orbit: 383 x 391 km, 45.1° (Epoch: 22 January)

Event Time Altitude Azimuth Distance (km) Brightness Sun altitude
Rises 16:22:35 0° 264° (W) 2,255 6.2 -9.2°
Reaches altitude 10° 16:24:41 10° 270° (W) 1,404 4.7 -9.6°
Maximum altitude 16:27:46 48° 347° (NNW) 510 1.1 -10.1°
Enters shadow 16:30:03 16° 59° (ENE) 1,097 2.2 -10.6°
